EDT,Max TemperatureF,Mean TemperatureF,Min TemperatureF,Max Dew PointF,MeanDew PointF,Min DewpointF,Max Humidity, Mean Humidity, Min Humidity, Max Sea Level PressureIn, Mean Sea Level PressureIn, Min Sea Level PressureIn, Max VisibilityMiles, Mean VisibilityMiles, Min VisibilityMiles, Max Wind SpeedMPH, Mean Wind SpeedMPH, Max Gust SpeedMPH,PrecipitationIn, CloudCover, Events, WindDirDegrees
2013-8-1,78,71,64,68,65,63,97,87,66,30.05,29.96,29.87,10,9,2,15,4,,0.01,3,Rain,171
2013-8-2,82,75,68,70,67,62,100,83,51,29.89,29.83,29.78,10,8,2,16,7,24,0.07,5,Rain,278
2013-8-3,75,72,66,68,65,61,90,78,68,29.89,29.86,29.82,10,9,7,13,8,25,0.00,3,Rain,251
2013-8-4,82,69,57,63,59,56,93,72,42,29.91,29.84,29.81,10,9,2,14,6,26,0.13,1,Rain,324
2013-8-5,78,67,57,56,52,45,87,62,33,30.05,29.98,29.91,10,10,10,15,7,23,0.00,0,,335
2013-8-6,75,64,54,64,57,48,93,73,40,30.15,30.11,30.04,10,10,10,14,5,,0.00,0,,132
2013-8-7,75,65,55,66,61,55,97,80,53,30.19,30.16,30.13,10,10,9,13,5,,0.00,2,,136
2013-8-8,77,72,69,72,69,65,97,90,81,30.11,30.07,30.04,10,8,2,14,9,,0.12,7,Rain,185
2013-8-9,77,73,71,73,71,70,100,96,88,30.05,29.92,29.81,9,5,1,23,9,78,0.42,7,Rain,186
2013-8-10,81,74,68,73,65,53,100,75,58,30.04,29.92,29.82,10,8,2,14,6,23,0.00,1,,286
2013-8-11,75,66,57,64,55,48,90,64,43,30.10,30.06,30.03,10,10,10,14,6,,0.00,0,,244
2013-8-12,77,69,63,70,66,61,100,89,60,30.04,29.99,29.94,10,8,2,7,1,,0.06,5,,180
2013-8-13,75,68,64,70,67,63,100,94,78,29.94,29.82,29.70,8,3,0,12,1,,0.10,6,Fog-Rain,88
2013-8-14,75,68,62,68,54,50,96,62,43,29.99,29.81,29.70,10,10,7,17,9,31,0.00,2,,309
2013-8-15,75,63,51,60,54,49,96,67,44,30.11,30.07,30.01,10,10,7,14,5,,0.00,1,,275
2013-8-16,77,72,63,64,61,56,90,71,50,30.21,30.17,30.15,10,10,9,9,5,,0.00,1,,205
2013-8-17,79,66,57,65,60,55,97,76,51,30.28,30.24,30.21,10,9,7,10,4,,0.00,0,,152
2013-8-18,75,67,61,63,60,56,97,80,61,30.27,30.21,30.11,10,9,6,8,3,,0.00,1,,83
2013-8-19,78,68,60,67,62,57,93,77,60,30.10,30.05,30.00,10,8,7,13,4,,0.00,0,,257
2013-8-20,84,72,62,67,63,59,100,77,47,30.12,30.06,30.01,9,7,1,13,4,,0.00,0,,259
2013-8-21,82,72,62,67,64,61,100,78,49,30.16,30.12,30.06,8,6,0,12,2,,0.00,0,Fog,224
2013-8-22,78,72,66,72,69,66,100,95,83,30.06,29.99,29.86,10,4,0,17,3,24,0.18,4,Fog-Rain,225
2013-8-23,82,73,62,70,63,54,100,76,38,30.11,29.94,29.84,10,9,5,13,5,24,0.00,2,,334
2013-8-24,79,68,55,59,55,51,93,69,39,30.35,30.26,30.12,10,10,10,12,7,18,0.00,0,,26
2013-8-25,78,66,54,63,58,52,96,74,40,30.37,30.31,30.22,10,10,9,12,4,,0.00,0,,223
2013-8-26,78,74,70,70,66,61,96,82,62,30.22,30.03,29.91,10,7,2,20,8,78,0.21,5,Rain,239
2013-8-27,84,75,68,70,69,67,100,89,65,29.91,29.84,29.81,10,6,1,16,6,20,0.13,5,Rain,10
2013-8-28,78,72,66,70,69,65,100,95,79,29.92,29.88,29.86,7,4,0,10,2,,0.00,5,Fog,96
2013-8-29,77,70,63,70,65,59,100,86,69,30.05,29.99,29.91,10,7,0,14,8,21,0.00,8,Fog-Rain,44
2013-8-30,77,68,60,70,64,57,97,86,76,30.03,29.95,29.87,9,7,5,13,5,81,0.00,5,,230
2013-8-31,79,75,71,72,70,69,94,89,79,29.87,29.85,29.82,7,6,4,14,7,,0.00,4,,222